STARLINK-11537, 62911

Orbit data source: Space-Track

STARLINK-11537, 62911 is a payload satellite owned by SpaceX/Seattle (US) in LEO that was launched on Sat, 08 Feb 2025 UTC via an FALCON 9 launch vehicle from the Air Force Eastern Test Range (AFETR). Payload-class satellites include a variety of spacecraft equipped with specific instruments for various scientific and technological missions. These include communications satellites like Starlink; space stations such as the ISS; scientific satellites like the Hubble; Earth observation satellites from companies like Planet Labs, Umbra, and HawkEye 360; GPS; miniature CubeSats for education and research; and military/defense satellites.

Loading next visibility...
Identifier
62911, 2025-027E
Orbit
LEO
Country
Flag of USUS
Related business
Manufacturer
SpaceX/Seattle
Mission
Operational Commercial Communications
Bus & Motor
STARLINK V2MD, Unknown motor
Mass
960 kg wet, ~910 kg dry
Launch date (UTC)
2025-02-08 (9 months ago)
Launch vehicle
FALCON 9
Launch site
Air Force Eastern Test Range (AFETR)
Object type
Payload
Rocket body
Debris
Shape & HBR
Box + 2 Pan, 18.1 m
Radar Cross Section
36.964 m², Large (>1 m²)

Expand to show TLE details & history
Last TLE update: 1 day ago

TLE from 1 day ago
0 STARLINK-11537
1 62911U 25027E   25300.74957041  .00359664  00000-0  26757-2 0  9994
2 62911  43.0005  69.0255 0002056 301.1763  58.8903 15.70940014 42284
Epoch: 2025-10-27T17:59Z
TLE epoch observation values (Epoch: 2025-10-27T17:59:22.883Z)
Latitude
-0.00001°
Longitude
122.8332°
Altitude
355.265 km
Speed
7.698 km/s
True Right ascension
04h 36m 06s
True Declination
0° 00' 00"
Sunlit
Object was in full shadow at epoch
Visualization orbit readout
Latitude
Unknown
Longitude
Unknown
Altitude
Unknown
Speed
Unknown
Apparent Right ascension
Unknown
Apparent Declination
Unknown
Sunlit
N/A
Visualization observer readout
Local Sidereal Time
01:20:34
Azimuth
Unknown
Elevation
Unknown
Doppler factor
Unknown
Orbital elements
Apogee altitude
359.576 km
Perigee altitude
356.806 km
Semi-major axis
6,736.328 km
Eccentricity
0.00021
Inclination
43.0005°
RAAN
69.0255°
Arg. of periapsis
301.1763°
True anomaly
58.91047°
Mean anomaly
58.8903°
Eccentric anomaly
58.90039°
Mean motion
3.92562 °/min
Orbital period
91.71 mins
BSTAR
0.0026757
Loading maneuver chart data...
Computing Atmospheric mass density...
Loading historical data...
Loading historical data...
Loading historical data...
Loading historical data...
Loading historical data...
Loading historical data...
Loading historical data...

Documentation

Showing up to 5 results
|